Temperature
30 26 26 26 27 27 28 28 27 28 28 27 26 25 25 25 25 24 23 23 23 23 22 22 22 21 21 21 20 20 20 19 19 19 19 19 18 18 18 18 18 18 18 18
26 26 28 29 29 29 28 27 27 28 28 27 25 25 25 25 24 24 23 23 23 22 22 22 22 21 21 21 20 20 20 19 19 19 19 19 18 18 18 18 18 18 18 18
27 27 29 30 30 29 28 27 27 27 27 26 26 24 24 25 25 24 24 23 23 23 22 22 22 21 21 21 20 20 20 19 19 19 19 18 18 18 18 18 18 18 18 18
27 28 30 30 30 30 28 29 29 28 26 24 25 23 23 23 24 23 23 23 23 23 23 22 22 21 21 21 20 20 20 19 19 19 19 19 18 18 18 18 18 18 18 18
27 29 30 29 30 30 29 30 29 28 25 24 23 23 23 23 23 22 23 23 23 23 23 22 22 22 21 21 20 20 20 19 19 19 18 18 18 18 18 18 18 18 18 18
27 29 30 30 30 31 30 27 26 23 22 23 24 23 23 22 23 23 23 23 23 23 23 23 22 22 21 21 20 20 20 19 19 19 18 18 18 18 18 18 18 18 18 18
27 28 29 30 29 29 28 24 23 24 22 23 23 23 22 23 24 24 23 23 23 23 23 22 22 22 21 21 20 20 20 19 19 19 18 18 18 18 18 18 18 18 18 18
26 25 28 30 29 28 27 24 23 24 23 22 23 23 23 24 25 25 24 24 23 23 23 23 22 22 21 21 21 20 20 20 19 19 19 18 18 18 18 18 18 18 18 18
25 25 28 30 30 29 28 25 23 21 22 22 22 23 23 24 24 24 24 23 23 23 23 23 22 22 22 21 21 20 20 20 19 19 18 18 18 18 18 18 18 18 18 18
25 26 27 29 29 29 28 25 22 22 22 22 23 22 22 23 23 23 23 23 23 23 23 23 23 22 22 21 21 20 20 20 19 19 18 18 18 18 18 18 18 18 18 18
25 25 25 27 28 28 28 27 22 20 21 21 22 22 23 23 22 22 23 23 23 24 23 23 22 22 22 21 20 20 20 19 19 19 18 18 18 18 18 18 18 18 18 18
24 22 23 25 26 28 27 26 23 23 22 20 21 22 24 23 23 23 23 23 23 24 23 23 22 22 21 21 20 20 19 19 19 19 18 18 18 18 18 17 17 17 17 17
24 21 22 23 24 26 27 26 24 21 20 20 21 23 23 23 23 24 24 23 23 23 23 23 22 22 21 21 20 20 19 19 19 18 18 18 18 17 17 17 17 17 17 17
24 21 21 23 23 25 26 27 26 23 21 22 22 23 23 22 22 23 24 24 23 23 23 23 22 22 21 21 20 20 20 19 19 18 18 18 18 17 17 17 17 17 17 17
22 22 23 24 25 26 27 27 27 25 23 23 23 23 23 22 23 23 23 24 23 23 22 22 22 22 21 21 20 20 19 19 19 18 18 18 18 17 17 17 17 17 16 16
20 21 22 24 25 26 27 27 27 26 26 24 24 23 23 23 23 23 23 23 22 22 22 22 22 22 21 21 20 20 19 19 19 18 18 18 17 17 17 17 17 16 16 16
19 20 20 21 23 25 25 26 27 26 26 25 24 23 22 22 22 22 23 23 23 22 22 22 22 22 21 21 20 20 19 19 18 18 18 17 17 17 17 17 16 16 16 16
19 18 18 20 22 24 23 24 26 26 25 24 24 23 22 22 23 23 24 23 23 23 22 22 22 22 21 21 20 20 19 19 18 18 17 17 17 17 16 16 16 16 16 15
18 19 18 18 21 22 24 25 25 24 23 23 23 22 22 22 22 22 23 23 23 22 22 22 22 21 21 20 20 19 19 18 18 17 17 17 17 16 16 16 16 16 15 15
18 18 18 18 21 22 22 24 26 24 22 23 22 21 21 22 20 20 22 23 22 22 22 21 21 21 20 20 19 19 18 18 18 17 17 17 16 16 16 16 16 15 15 15
19 18 18 19 20 21 22 24 25 23 21 22 23 22 22 21 22 22 22 22 22 21 21 21 21 20 20 19 19 18 18 18 17 17 17 16 16 16 16 15 15 15 15 14
18 17 18 17 19 20 22 23 22 21 22 23 22 22 22 22 21 21 21 21 21 21 20 20 20 20 19 19 18 18 18 17 17 17 16 16 16 15 15 15 15 15 14 14
17 18 17 17 18 19 21 22 23 23 22 22 22 22 22 21 20 20 20 20 20 20 20 19 19 19 18 18 18 18 17 17 17 16 16 16 15 15 15 15 15 14 14 14
17 17 16 17 18 19 21 22 22 23 23 23 22 22 21 20 20 19 19 19 19 19 19 19 19 18 18 18 17 17 17 16 16 16 16 15 15 15 14 14 14 14 14 14
16 16 16 16 17 19 20 21 21 22 22 21 21 21 21 20 20 19 19 19 19 18 18 18 18 18 17 17 17 16 16 16 16 15 15 15 14 14 14 14 14 13 13 13
15 15 16 16 17 17 18 20 21 21 20 20 20 20 20 20 19 19 19 18 18 18 18 17 17 17 16 16 16 16 15 15 15 15 15 14 14 14 14 13 13 13 13 13
Wind_Speed
4 4 2 6 6 7 5 3 3 3 3 4 7 7 9 10 10 9 8 9 9 8 7 8 9 9 8 7 6 6 5 5 4 3 3 2 2 1 1 2 4 5 6 6
6 3 8 6 3 3 3 3 1 1 2 4 5 4 5 8 11 10 10 10 9 8 8 8 8 8 8 8 7 6 6 6 5 3 3 3 2 2 2 1 3 5 6 6
6 8 5 2 2 0 1 5 5 4 2 5 7 4 1 2 6 8 9 9 9 11 11 10 9 8 8 8 8 7 6 6 5 4 3 2 2 1 0 1 2 3 5 6
6 6 3 2 3 3 3 4 5 5 4 0 4 2 3 2 4 6 6 7 9 9 10 9 8 8 8 8 7 7 6 6 5 5 4 4 3 3 3 3 2 2 3 5
5 3 2 3 5 2 4 2 4 4 4 3 3 5 4 1 4 6 7 9 9 10 10 10 9 8 8 7 7 6 6 5 5 5 5 4 3 2 1 1 2 2 2 3
6 4 3 5 3 0 2 7 8 7 5 2 2 4 4 5 7 8 8 10 10 10 10 8 7 7 6 6 6 5 6 5 4 5 5 5 4 3 2 2 2 1 1 1
6 7 4 2 1 5 7 7 4 5 5 3 2 3 6 6 8 10 12 10 9 9 9 8 8 7 7 7 6 6 6 4 4 4 4 4 4 4 3 3 3 2 1 1
2 7 6 3 6 4 4 10 8 4 4 3 4 0 5 4 6 8 9 9 11 10 9 9 10 9 8 8 7 6 6 4 4 4 4 3 3 3 2 3 3 2 2 2
6 6 6 5 5 7 4 4 9 7 3 2 3 3 5 3 6 7 8 9 11 11 10 10 9 9 8 8 8 8 7 5 4 4 3 3 3 3 2 2 2 2 2 2
7 4 7 4 2 1 7 7 6 6 4 1 2 2 4 5 6 7 9 11 11 10 10 10 9 8 8 7 7 7 6 6 4 4 3 3 3 2 2 2 1 1 2 1
6 4 6 3 3 5 2 3 6 5 6 7 3 6 7 12 11 11 11 12 13 12 11 9 8 7 7 7 7 7 6 5 4 4 3 3 3 2 2 2 2 1 1 1
4 5 3 7 7 7 7 8 8 6 3 6 5 6 5 11 10 11 11 10 11 11 10 10 9 8 7 7 6 6 6 5 4 4 3 4 3 3 2 1 1 1 1 1
4 6 1 7 7 4 1 3 6 7 6 5 5 5 2 8 9 9 10 10 10 10 9 8 8 8 8 7 6 6 6 5 5 5 4 4 3 3 2 1 1 2 2 2
5 5 7 8 8 4 4 4 2 7 5 5 7 7 6 9 10 9 9 10 10 10 9 9 8 7 7 7 7 6 5 4 5 5 5 4 3 3 2 2 2 2 2 2
6 3 3 5 5 3 4 5 3 3 8 9 9 11 14 14 14 12 10 10 10 10 9 10 9 7 7 6 6 6 5 4 5 5 5 4 3 3 3 3 2 2 2 3
4 3 2 3 4 4 4 4 3 3 4 6 8 7 9 9 8 9 10 11 11 10 10 9 9 8 7 7 6 6 5 4 5 5 4 4 3 3 3 3 2 2 2 2
2 4 3 3 5 4 5 5 3 3 4 8 8 8 10 10 11 12 12 12 11 11 10 10 9 9 8 7 7 7 5 5 5 4 4 3 3 3 2 2 3 2 2 2
5 4 3 1 3 4 9 5 2 3 2 4 6 8 12 13 11 9 10 12 11 10 9 9 8 8 7 6 7 7 6 6 5 4 3 2 3 3 2 2 3 2 2 2
7 7 4 3 2 5 8 4 2 4 1 4 9 9 10 11 9 5 4 9 10 9 9 8 8 8 7 7 7 7 6 6 5 4 3 2 3 3 2 2 2 2 2 2
4 6 5 4 3 5 7 6 1 7 0 2 10 12 11 10 7 5 6 9 9 9 8 8 8 8 8 7 8 8 6 5 4 3 3 2 3 3 3 2 2 2 3 3
3 3 4 4 4 6 7 6 2 4 6 4 7 11 11 7 7 9 10 10 10 10 9 9 10 8 7 7 8 8 6 4 3 3 3 3 3 4 4 3 4 3 3 3
4 3 4 4 4 7 6 2 2 6 4 4 6 8 8 9 10 10 10 10 10 10 9 9 9 7 6 7 8 7 5 3 4 4 4 4 4 4 4 5 4 4 4 3
4 6 5 6 6 6 3 1 3 6 8 6 7 9 13 13 10 10 9 10 10 9 8 8 9 8 6 5 7 7 4 4 5 5 4 5 5 4 4 5 4 3 2 2
3 1 3 1 2 2 3 3 3 5 7 7 10 13 14 13 11 11 10 9 9 7 8 7 9 8 6 5 5 5 4 5 5 5 4 4 5 5 5 4 3 3 2 1
3 2 1 1 1 3 4 2 4 5 8 10 10 11 12 14 12 11 10 9 9 8 6 7 8 7 6 5 5 4 4 5 5 4 4 4 4 5 5 4 3 2 1 1
2 1 2 5 5 3 2 1 5 8 9 10 10 9 9 11 11 10 9 8 8 8 7 7 7 7 6 5 4 3 4 5 5 4 3 3 3 3 4 4 4 7 5 5
Wind_Direction
349 66 251 245 208 191 187 169 172 216 191 114 121 135 158 158 154 152 154 158 164 171 171 159 158 155 148 149 152 154 153 161 150 143 142 145 167 196 189 201 197 195 193 187
16 284 243 240 226 178 159 136 186 279 161 125 109 106 149 155 165 167 167 169 168 156 150 156 157 156 157 159 161 159 162 167 170 169 167 166 169 200 205 211 218 209 201 194
214 243 260 260 273 68 241 179 187 170 69 74 99 34 77 142 147 161 168 170 171 168 164 162 162 164 162 166 171 172 169 167 174 171 145 124 94 60 76 219 238 230 209 199
249 248 240 261 256 160 276 218 165 134 103 69 110 135 286 176 147 157 159 166 179 173 160 162 162 163 171 177 171 166 169 168 170 162 155 160 167 186 215 206 212 237 218 202
266 264 189 220 243 182 217 163 122 125 115 72 46 115 266 196 161 180 176 180 179 171 160 161 164 166 169 168 166 168 165 169 171 169 172 168 178 201 210 182 198 236 244 218
258 269 208 205 254 231 111 61 45 48 68 52 241 141 240 211 187 176 179 184 174 163 155 154 154 150 153 153 154 156 159 170 174 175 176 176 179 179 167 174 186 223 244 248
313 310 287 197 9 358 77 81 41 8 18 260 277 124 240 219 177 170 179 178 164 153 150 152 153 161 164 162 159 157 159 166 176 174 174 179 179 175 182 188 193 201 212 234
233 284 269 209 172 181 153 133 151 181 201 279 352 197 266 220 162 157 163 156 149 153 160 163 165 167 169 168 163 159 164 171 175 174 174 171 174 173 184 187 185 202 211 228
192 249 275 236 185 151 145 158 161 134 126 71 334 330 344 66 113 130 139 142 153 162 164 166 170 167 168 170 170 169 169 171 175 172 167 158 159 165 176 181 183 208 224 215
172 246 288 283 59 106 162 155 97 109 131 128 310 266 217 188 166 152 152 158 162 166 167 169 171 173 173 173 167 162 164 173 173 173 174 167 164 160 157 144 161 203 217 195
159 184 298 346 185 203 174 121 111 114 141 145 187 260 216 191 177 166 170 170 169 168 167 166 170 173 160 158 160 161 162 160 165 171 168 157 157 162 162 170 181 188 190 149
162 139 246 260 252 204 181 182 152 147 187 150 156 254 231 178 170 165 169 169 169 165 164 163 163 154 148 153 155 157 160 164 172 168 156 153 149 151 159 176 173 133 108 84
136 116 86 332 334 348 186 190 153 133 125 144 155 243 198 156 163 169 163 163 164 159 153 151 150 151 154 154 154 155 160 165 160 146 139 136 138 141 160 176 142 119 106 82
115 117 160 194 217 241 278 276 161 128 147 180 193 189 182 170 172 175 168 164 157 154 151 151 154 155 156 156 154 153 157 157 147 137 135 137 144 150 153 141 126 118 113 102
90 127 176 213 235 252 259 272 260 187 181 175 199 182 192 185 176 174 166 154 147 149 152 157 159 160 157 152 150 150 149 147 142 137 138 153 157 153 139 126 125 120 117 112
61 102 54 338 331 344 309 280 259 233 186 168 159 198 200 174 156 155 156 149 149 151 159 160 157 154 154 155 155 148 147 150 142 145 153 156 145 134 133 140 130 114 109 105
58 90 74 295 322 15 298 255 239 231 184 157 174 196 161 154 161 164 159 155 155 157 157 158 158 158 159 156 149 146 143 128 123 133 144 148 144 140 148 142 124 128 125 103
139 101 120 116 33 233 247 256 189 151 175 149 147 155 159 158 157 150 149 151 155 154 153 154 153 150 151 146 138 134 130 129 127 123 117 123 132 131 121 113 122 132 125 112
152 141 132 129 186 273 292 295 154 131 304 132 131 135 133 125 100 87 134 143 146 146 145 146 146 140 135 135 134 128 127 129 131 130 124 126 132 126 118 121 135 140 121 101
93 120 132 144 165 226 256 283 201 109 152 198 139 140 144 127 134 182 163 135 132 131 132 132 128 119 124 133 128 124 129 131 143 151 142 140 133 132 135 133 120 111 115 112
55 70 145 173 204 250 265 289 47 125 210 222 155 151 152 159 168 161 145 136 134 131 130 127 122 121 129 134 129 126 128 142 155 138 127 130 132 128 121 102 91 94 98 94
169 152 179 158 190 249 290 1 153 197 177 160 135 138 125 112 114 123 129 129 125 123 125 125 123 122 122 125 128 130 140 144 120 111 111 107 106 115 111 101 95 91 95 92
190 187 183 182 209 245 292 243 213 148 137 143 135 130 120 114 121 126 128 125 118 121 124 121 122 120 116 123 130 134 144 128 116 107 103 104 98 90 100 108 109 100 103 118
308 24 110 100 285 311 5 56 56 116 129 133 132 131 126 120 122 122 125 120 114 112 118 116 116 117 115 113 115 126 128 121 116 117 114 111 101 89 81 84 94 102 105 117
277 344 68 176 255 26 13 61 84 81 98 106 114 123 128 125 126 129 126 123 119 116 110 112 116 119 120 113 106 111 120 120 116 115 116 116 115 114 97 78 63 78 78 173
279 207 190 224 220 165 240 247 106 111 120 123 118 109 116 123 125 126 126 125 124 122 118 114 115 118 116 112 109 109 116 119 121 119 120 129 130 124 120 111 78 48 50 45
Height
1505 1512 1518 1513 1510 1513 1515 1520 1524 1520 1513 1517 1522 1525 1526 1527 1530 1532 1533 1534 1536 1537 1539 1540 1541 1542 1543 1544 1545 1545 1547 1548 1549 1550 1550 1551 1552 1553 1554 1554 1555 1556 1557 1557
1513 1516 1506 1503 1504 1507 1512 1521 1523 1518 1513 1519 1525 1528 1526 1527 1528 1530 1532 1533 1535 1537 1539 1540 1541 1542 1543 1543 1544 1545 1546 1547 1548 1549 1549 1550 1551 1552 1553 1553 1554 1555 1555 1556
1515 1509 1500 1502 1505 1510 1514 1519 1521 1521 1518 1520 1527 1537 1533 1529 1528 1530 1532 1533 1535 1536 1537 1539 1541 1541 1542 1543 1543 1544 1545 1546 1547 1548 1549 1549 1550 1550 1551 1552 1552 1553 1553 1554
1508 1501 1501 1504 1506 1507 1518 1507 1509 1515 1527 1538 1533 1555 1541 1534 1532 1531 1533 1534 1535 1536 1537 1538 1540 1541 1542 1542 1543 1543 1545 1545 1546 1547 1547 1548 1548 1548 1549 1550 1551 1551 1552 1552
1508 1500 1501 1505 1503 1502 1507 1501 1507 1514 1527 1539 1539 1551 1548 1536 1536 1533 1532 1533 1534 1534 1536 1538 1539 1540 1541 1542 1543 1543 1544 1545 1545 1546 1546 1547 1547 1547 1548 1549 1549 1550 1550 1550
1502 1496 1497 1498 1496 1498 1499 1506 1515 1526 1537 1554 1543 1549 1550 1539 1532 1531 1531 1532 1533 1534 1536 1538 1539 1541 1541 1542 1543 1543 1543 1544 1544 1544 1545 1545 1546 1546 1547 1547 1547 1548 1548 1548
1507 1499 1494 1494 1500 1501 1504 1528 1551 1554 1563 1559 1541 1545 1544 1525 1523 1524 1527 1530 1532 1534 1536 1538 1539 1540 1541 1541 1542 1543 1543 1543 1543 1544 1544 1544 1545 1545 1546 1546 1546 1546 1546 1546
1521 1520 1498 1493 1498 1506 1509 1524 1551 1564 1567 1560 1544 1547 1535 1520 1519 1521 1524 1528 1531 1533 1535 1536 1538 1539 1540 1541 1541 1542 1542 1542 1543 1543 1543 1543 1544 1544 1544 1544 1545 1545 1545 1545
1519 1517 1494 1490 1490 1496 1508 1520 1524 1545 1552 1562 1555 1543 1530 1521 1522 1523 1525 1528 1530 1532 1533 1535 1536 1538 1539 1540 1540 1541 1541 1542 1542 1542 1542 1542 1543 1543 1543 1543 1544 1544 1543 1543
1504 1513 1500 1491 1490 1492 1499 1508 1528 1544 1561 1568 1558 1551 1545 1531 1527 1525 1525 1527 1529 1530 1532 1534 1535 1537 1538 1539 1540 1540 1541 1541 1542 1542 1542 1542 1542 1543 1542 1542 1542 1542 1542 1541
1497 1512 1508 1499 1500 1503 1503 1509 1523 1540 1545 1562 1568 1556 1523 1523 1521 1522 1523 1524 1526 1528 1530 1532 1534 1536 1537 1539 1539 1540 1540 1541 1541 1541 1541 1541 1542 1542 1542 1541 1541 1541 1540 1540
1495 1510 1518 1506 1493 1489 1495 1503 1517 1536 1544 1548 1556 1548 1512 1514 1517 1519 1521 1523 1525 1526 1529 1531 1533 1535 1536 1538 1538 1539 1540 1540 1541 1541 1541 1541 1541 1541 1541 1541 1540 1540 1539 1539
1493 1510 1526 1522 1512 1498 1497 1498 1506 1518 1533 1545 1552 1541 1512 1513 1516 1517 1519 1521 1523 1526 1528 1530 1532 1534 1535 1537 1538 1539 1540 1540 1540 1540 1540 1540 1540 1540 1540 1540 1540 1539 1538 1538
1488 1507 1520 1527 1520 1507 1503 1498 1499 1514 1532 1537 1534 1528 1517 1514 1515 1516 1517 1519 1522 1524 1526 1529 1531 1533 1534 1536 1537 1538 1539 1539 1539 1539 1539 1539 1539 1539 1539 1539 1539 1538 1538 1537
1489 1505 1504 1503 1498 1496 1497 1496 1496 1504 1512 1521 1519 1517 1511 1508 1509 1512 1515 1518 1521 1524 1526 1528 1530 1532 1534 1535 1536 1537 1538 1538 1538 1538 1538 1538 1538 1538 1538 1538 1538 1537 1537 1536
1493 1503 1503 1503 1495 1494 1495 1493 1493 1495 1498 1504 1507 1510 1501 1504 1507 1511 1514 1517 1520 1522 1524 1526 1528 1530 1532 1534 1535 1535 1536 1537 1537 1537 1537 1537 1537 1537 1537 1537 1537 1536 1536 1535
1499 1504 1513 1515 1503 1499 1507 1494 1491 1493 1492 1496 1506 1503 1499 1504 1506 1509 1512 1515 1518 1520 1522 1525 1527 1529 1530 1532 1533 1534 1534 1535 1535 1536 1536 1536 1536 1536 1536 1536 1536 1535 1535 1534
1498 1507 1516 1518 1512 1521 1505 1485 1484 1487 1489 1489 1491 1493 1495 1499 1503 1506 1510 1513 1516 1518 1521 1523 1526 1527 1529 1530 1531 1532 1534 1534 1534 1535 1535 1535 1535 1535 1535 1535 1535 1534 1534 1533
1488 1502 1515 1523 1523 1514 1496 1485 1484 1490 1495 1490 1491 1494 1497 1500 1505 1509 1511 1512 1514 1517 1520 1522 1524 1526 1527 1529 1531 1532 1532 1533 1533 1534 1534 1534 1534 1534 1534 1534 1533 1533 1533 1532
1489 1494 1510 1519 1520 1521 1502 1484 1480 1485 1501 1491 1490 1494 1497 1499 1509 1511 1510 1512 1514 1517 1519 1521 1523 1525 1527 1528 1530 1531 1531 1532 1532 1532 1532 1533 1533 1533 1533 1533 1532 1532 1532 1532
1501 1504 1510 1515 1517 1508 1490 1482 1481 1501 1503 1491 1490 1491 1494 1496 1499 1504 1507 1511 1513 1516 1519 1520 1522 1524 1526 1528 1529 1530 1530 1530 1531 1531 1532 1532 1532 1532 1532 1532 1531 1531 1531 1531
1503 1509 1511 1513 1517 1511 1485 1482 1487 1489 1486 1488 1489 1491 1493 1495 1499 1503 1507 1510 1512 1515 1517 1519 1521 1523 1525 1527 1528 1529 1529 1530 1530 1530 1530 1530 1531 1531 1531 1531 1530 1530 1530 1530
1497 1496 1499 1502 1502 1490 1484 1484 1483 1482 1484 1486 1488 1492 1493 1496 1500 1503 1507 1510 1512 1515 1517 1519 1520 1523 1524 1526 1527 1528 1528 1529 1529 1529 1529 1529 1530 1530 1530 1529 1529 1529 1529 1528
1493 1489 1492 1495 1491 1487 1485 1484 1483 1482 1483 1486 1488 1491 1493 1497 1501 1504 1507 1509 1512 1515 1517 1519 1520 1522 1523 1525 1526 1527 1528 1528 1528 1528 1529 1529 1529 1529 1529 1529 1528 1528 1528 1527
1494 1491 1493 1493 1490 1487 1487 1485 1485 1485 1485 1487 1490 1492 1493 1496 1501 1504 1507 1510 1512 1516 1517 1518 1520 1521 1523 1524 1526 1526 1527 1527 1527 1528 1528 1528 1528 1528 1528 1528 1528 1527 1527 1527
1491 1492 1494 1493 1487 1488 1488 1487 1485 1486 1487 1488 1491 1493 1496 1497 1501 1504 1508 1511 1513 1515 1517 1518 1520 1521 1523 1524 1525 1525 1526 1526 1527 1527 1527 1527 1527 1527 1527 1527 1527 1526 1526 1526